Location: Bu�n Treun
(12.1333°N, 108.3167°E)
Time: 17:03:45
(UTC+00:00)

N. Korean satellite - Pass Details

Date: 24 June 2021
Orbit: 451 x 498 km, 97.2° (Epoch: 01 August)

Event Time Altitude Azimuth Distance (km) Brightness Sun altitude
Rises 21:37:16 0° 17° (NNE) 2,569 11.0 -11.2°
Reaches altitude 10° 21:39:22 10° 21° (NNE) 1,690 10.1 -10.7°
Maximum altitude 21:42:56 56° 100° (E) 593 7.3 -10.0°
Drops below altitude 10° 21:46:32 10° 179° (S) 1,693 9.1 -9.2°
Sets 21:48:38 0° 184° (S) 2,574 9.9 -8.7°
